﻿測定場所 (Monitoring sites),日付 (Measurement date),時間 (Measurement time),線量率 最大値 (max) μGy/h,線量率 最小値 (min) μGy/h,線量率 平均値 (average) μGy/h,
江東 (Koto),2014-03-02,23:01～24:00,0.0440,0.0388,0.0416,
江東 (Koto),2014-03-02,22:01～23:00,0.0429,0.0375,0.0402,
江東 (Koto),2014-03-02,21:01～22:00,0.0445,0.0385,0.0412,
江東 (Koto),2014-03-02,20:01～21:00,0.0472,0.0411,0.0444,
江東 (Koto),2014-03-02,19:01～20:00,0.0492,0.0428,0.0463,
江東 (Koto),2014-03-02,18:01～19:00,0.0536,0.0462,0.0491,
江東 (Koto),2014-03-02,17:01～18:00,0.0511,0.0452,0.0482,
江東 (Koto),2014-03-02,16:01～17:00,0.0503,0.0414,0.0453,
江東 (Koto),2014-03-02,15:01～16:00,0.0461,0.0404,0.0428,
江東 (Koto),2014-03-02,14:01～15:00,0.0462,0.0406,0.0432,
江東 (Koto),2014-03-02,13:01～14:00,0.0454,0.0400,0.0427,
江東 (Koto),2014-03-02,12:01～13:00,0.0464,0.0410,0.0437,
江東 (Koto),2014-03-02,11:01～12:00,0.0466,0.0381,0.0422,
江東 (Koto),2014-03-02,10:01～11:00,0.0427,0.0377,0.0397,
江東 (Koto),2014-03-02,09:01～10:00,0.0426,0.0370,0.0397,
江東 (Koto),2014-03-02,08:01～09:00,0.0444,0.0393,0.0413,
江東 (Koto),2014-03-02,07:01～08:00,0.0469,0.0395,0.0440,
江東 (Koto),2014-03-02,06:01～07:00,0.0510,0.0436,0.0470,
江東 (Koto),2014-03-02,05:01～06:00,0.0525,0.0471,0.0500,
江東 (Koto),2014-03-02,04:01～05:00,0.0528,0.0455,0.0494,
江東 (Koto),2014-03-02,03:01～04:00,0.0541,0.0482,0.0511,
江東 (Koto),2014-03-02,02:01～03:00,0.0537,0.0445,0.0496,
江東 (Koto),2014-03-02,01:01～02:00,0.0469,0.0371,0.0413,
江東 (Koto),2014-03-02,00:01～01:00,0.0423,0.0371,0.0399,
江東 (Koto),2014-03-01,23:01～24:00,0.0420,0.0372,0.0395,
江東 (Koto),2014-03-01,22:01～23:00,0.0417,0.0378,0.0398,
江東 (Koto),2014-03-01,21:01～22:00,0.0426,0.0366,0.0400,
江東 (Koto),2014-03-01,20:01～21:00,0.0457,0.0385,0.0414,
江東 (Koto),2014-03-01,19:01～20:00,0.0471,0.0408,0.0440,
江東 (Koto),2014-03-01,18:01～19:00,0.0477,0.0400,0.0437,
江東 (Koto),2014-03-01,17:01～18:00,0.0428,0.0377,0.0405,
江東 (Koto),2014-03-01,16:01～17:00,0.0417,0.0366,0.0393,
江東 (Koto),2014-03-01,15:01～16:00,0.0412,0.0375,0.0394,
江東 (Koto),2014-03-01,14:01～15:00,0.0421,0.0368,0.0395,
江東 (Koto),2014-03-01,13:01～14:00,0.0417,0.0378,0.0397,
江東 (Koto),2014-03-01,12:01～13:00,0.0424,0.0367,0.0397,
江東 (Koto),2014-03-01,11:01～12:00,0.0429,0.0379,0.0402,
江東 (Koto),2014-03-01,10:01～11:00,0.0430,0.0373,0.0405,
江東 (Koto),2014-03-01,09:01～10:00,0.0436,0.0379,0.0409,
江東 (Koto),2014-03-01,08:01～09:00,0.0427,0.0366,0.0400,
江東 (Koto),2014-03-01,07:01～08:00,0.0417,0.0379,0.0399,
江東 (Koto),2014-03-01,06:01～07:00,0.0433,0.0388,0.0407,
江東 (Koto),2014-03-01,05:01～06:00,0.0424,0.0358,0.0396,
江東 (Koto),2014-03-01,04:01～05:00,0.0420,0.0370,0.0395,
江東 (Koto),2014-03-01,03:01～04:00,0.0418,0.0368,0.0393,
江東 (Koto),2014-03-01,02:01～03:00,0.0411,0.0367,0.0391,
江東 (Koto),2014-03-01,01:01～02:00,0.0421,0.0370,0.0394,
江東 (Koto),2014-03-01,00:01～01:00,0.0415,0.0358,0.0394,
江東 (Koto),2014-02-28,23:01～24:00,0.0426,0.0364,0.0392,
江東 (Koto),2014-02-28,22:01～23:00,0.0409,0.0373,0.0391,
江東 (Koto),2014-02-28,21:01～22:00,0.0412,0.0374,0.0392,
江東 (Koto),2014-02-28,20:01～21:00,0.0422,0.0362,0.0393,
江東 (Koto),2014-02-28,19:01～20:00,0.0424,0.0375,0.0392,
江東 (Koto),2014-02-28,18:01～19:00,0.0418,0.0369,0.0387,
江東 (Koto),2014-02-28,17:01～18:00,0.0409,0.0369,0.0392,
江東 (Koto),2014-02-28,16:01～17:00,0.0415,0.0369,0.0390,
江東 (Koto),2014-02-28,15:01～16:00,0.0411,0.0372,0.0389,
江東 (Koto),2014-02-28,14:01～15:00,0.0412,0.0364,0.0390,
江東 (Koto),2014-02-28,13:01～14:00,0.0419,0.0364,0.0389,
江東 (Koto),2014-02-28,12:01～13:00,0.0417,0.0365,0.0387,
江東 (Koto),2014-02-28,11:01～12:00,0.0415,0.0367,0.0393,
江東 (Koto),2014-02-28,10:01～11:00,0.0408,0.0371,0.0388,
江東 (Koto),2014-02-28,09:01～10:00,0.0409,0.0378,0.0393,
江東 (Koto),2014-02-28,08:01～09:00,0.0425,0.0368,0.0393,
江東 (Koto),2014-02-28,07:01～08:00,0.0432,0.0367,0.0392,
江東 (Koto),2014-02-28,06:01～07:00,0.0408,0.0375,0.0391,
江東 (Koto),2014-02-28,05:01～06:00,0.0422,0.0378,0.0399,
江東 (Koto),2014-02-28,04:01～05:00,0.0455,0.0389,0.0421,
江東 (Koto),2014-02-28,03:01～04:00,0.0477,0.0409,0.0444,
江東 (Koto),2014-02-28,02:01～03:00,0.0465,0.0389,0.0427,
江東 (Koto),2014-02-28,01:01～02:00,0.0464,0.0402,0.0433,
江東 (Koto),2014-02-28,00:01～01:00,0.0445,0.0398,0.0420,
江東 (Koto),2014-02-27,23:01～24:00,0.0440,0.0385,0.0411,
江東 (Koto),2014-02-27,22:01～23:00,0.0444,0.0376,0.0402,
江東 (Koto),2014-02-27,21:01～22:00,0.0449,0.0381,0.0413,
江東 (Koto),2014-02-27,20:01～21:00,0.0433,0.0384,0.0409,
江東 (Koto),2014-02-27,19:01～20:00,0.0430,0.0385,0.0407,
江東 (Koto),2014-02-27,18:01～19:00,0.0420,0.0378,0.0399,
江東 (Koto),2014-02-27,17:01～18:00,0.0427,0.0363,0.0394,
江東 (Koto),2014-02-27,16:01～17:00,0.0431,0.0378,0.0398,
江東 (Koto),2014-02-27,15:01～16:00,0.0414,0.0369,0.0395,
江東 (Koto),2014-02-27,14:01～15:00,0.0418,0.0372,0.0395,
江東 (Koto),2014-02-27,13:01～14:00,0.0418,0.0382,0.0399,
江東 (Koto),2014-02-27,12:01～13:00,0.0422,0.0371,0.0398,
江東 (Koto),2014-02-27,11:01～12:00,0.0420,0.0378,0.0398,
江東 (Koto),2014-02-27,10:01～11:00,0.0435,0.0389,0.0410,
江東 (Koto),2014-02-27,09:01～10:00,0.0434,0.0384,0.0410,
江東 (Koto),2014-02-27,08:01～09:00,0.0423,0.0368,0.0400,
江東 (Koto),2014-02-27,07:01～08:00,0.0422,0.0379,0.0400,
江東 (Koto),2014-02-27,06:01～07:00,0.0426,0.0367,0.0397,
江東 (Koto),2014-02-27,05:01～06:00,0.0419,0.0371,0.0396,
江東 (Koto),2014-02-27,04:01～05:00,0.0420,0.0372,0.0396,
江東 (Koto),2014-02-27,03:01～04:00,0.0423,0.0370,0.0400,
江東 (Koto),2014-02-27,02:01～03:00,0.0414,0.0373,0.0396,
江東 (Koto),2014-02-27,01:01～02:00,0.0421,0.0367,0.0391,
江東 (Koto),2014-02-27,00:01～01:00,0.0425,0.0373,0.0396,
江東 (Koto),2014-02-26,23:01～24:00,0.0413,0.0369,0.0393,
江東 (Koto),2014-02-26,22:01～23:00,0.0416,0.0367,0.0391,
江東 (Koto),2014-02-26,21:01～22:00,0.0414,0.0367,0.0393,
江東 (Koto),2014-02-26,20:01～21:00,0.0419,0.0371,0.0394,
江東 (Koto),2014-02-26,19:01～20:00,0.0415,0.0369,0.0394,
江東 (Koto),2014-02-26,18:01～19:00,0.0416,0.0373,0.0396,
江東 (Koto),2014-02-26,17:01～18:00,0.0424,0.0367,0.0396,
江東 (Koto),2014-02-26,16:01～17:00,0.0416,0.0370,0.0392,
江東 (Koto),2014-02-26,15:01～16:00,0.0419,0.0363,0.0396,
江東 (Koto),2014-02-26,14:01～15:00,0.0423,0.0375,0.0396,
江東 (Koto),2014-02-26,13:01～14:00,0.0421,0.0358,0.0394,
江東 (Koto),2014-02-26,12:01～13:00,0.0411,0.0366,0.0391,
江東 (Koto),2014-02-26,11:01～12:00,0.0419,0.0376,0.0394,
江東 (Koto),2014-02-26,10:01～11:00,0.0412,0.0367,0.0390,
江東 (Koto),2014-02-26,09:01～10:00,0.0422,0.0362,0.0395,
江東 (Koto),2014-02-26,08:01～09:00,0.0419,0.0371,0.0397,
江東 (Koto),2014-02-26,07:01～08:00,0.0425,0.0373,0.0396,
江東 (Koto),2014-02-26,06:01～07:00,0.0418,0.0372,0.0395,
江東 (Koto),2014-02-26,05:01～06:00,0.0426,0.0374,0.0395,
江東 (Koto),2014-02-26,04:01～05:00,0.0419,0.0375,0.0395,
江東 (Koto),2014-02-26,03:01～04:00,0.0420,0.0372,0.0397,
江東 (Koto),2014-02-26,02:01～03:00,0.0417,0.0373,0.0394,
江東 (Koto),2014-02-26,01:01～02:00,0.0420,0.0364,0.0394,
江東 (Koto),2014-02-26,00:01～01:00,0.0417,0.0372,0.0394,
江東 (Koto),2014-02-25,23:01～24:00,0.0426,0.0371,0.0395,
江東 (Koto),2014-02-25,22:01～23:00,0.0421,0.0374,0.0393,
江東 (Koto),2014-02-25,21:01～22:00,0.0427,0.0368,0.0393,
江東 (Koto),2014-02-25,20:01～21:00,0.0420,0.0371,0.0392,
江東 (Koto),2014-02-25,19:01～20:00,0.0419,0.0364,0.0394,
江東 (Koto),2014-02-25,18:01～19:00,0.0417,0.0367,0.0391,
江東 (Koto),2014-02-25,17:01～18:00,0.0417,0.0373,0.0394,
江東 (Koto),2014-02-25,16:01～17:00,0.0428,0.0368,0.0393,
江東 (Koto),2014-02-25,15:01～16:00,0.0414,0.0368,0.0391,
江東 (Koto),2014-02-25,14:01～15:00,0.0416,0.0371,0.0394,
江東 (Koto),2014-02-25,13:01～14:00,0.0418,0.0362,0.0393,
江東 (Koto),2014-02-25,12:01～13:00,0.0426,0.0367,0.0395,
江東 (Koto),2014-02-25,11:01～12:00,0.0421,0.0363,0.0394,
江東 (Koto),2014-02-25,10:01～11:00,0.0421,0.0376,0.0395,
江東 (Koto),2014-02-25,09:01～10:00,0.0415,0.0366,0.0393,
江東 (Koto),2014-02-25,08:01～09:00,0.0421,0.0368,0.0396,
江東 (Koto),2014-02-25,07:01～08:00,0.0420,0.0374,0.0397,
江東 (Koto),2014-02-25,06:01～07:00,0.0410,0.0360,0.0394,
江東 (Koto),2014-02-25,05:01～06:00,0.0419,0.0375,0.0394,
江東 (Koto),2014-02-25,04:01～05:00,0.0420,0.0362,0.0391,
江東 (Koto),2014-02-25,03:01～04:00,0.0417,0.0372,0.0394,
江東 (Koto),2014-02-25,02:01～03:00,0.0416,0.0367,0.0392,
江東 (Koto),2014-02-25,01:01～02:00,0.0423,0.0371,0.0394,
江東 (Koto),2014-02-25,00:01～01:00,0.0415,0.0372,0.0393,
江東 (Koto),2014-02-24,23:01～24:00,0.0409,0.0365,0.0388,
江東 (Koto),2014-02-24,22:01～23:00,0.0420,0.0363,0.0391,
江東 (Koto),2014-02-24,21:01～22:00,0.0409,0.0374,0.0392,
江東 (Koto),2014-02-24,20:01～21:00,0.0412,0.0375,0.0392,
江東 (Koto),2014-02-24,19:01～20:00,0.0413,0.0372,0.0394,
江東 (Koto),2014-02-24,18:01～19:00,0.0411,0.0369,0.0391,
江東 (Koto),2014-02-24,17:01～18:00,0.0418,0.0363,0.0393,
江東 (Koto),2014-02-24,16:01～17:00,0.0414,0.0366,0.0395,
江東 (Koto),2014-02-24,15:01～16:00,0.0420,0.0370,0.0394,
江東 (Koto),2014-02-24,14:01～15:00,0.0420,0.0357,0.0391,
江東 (Koto),2014-02-24,13:01～14:00,0.0423,0.0372,0.0392,
江東 (Koto),2014-02-24,12:01～13:00,0.0414,0.0367,0.0392,
江東 (Koto),2014-02-24,11:01～12:00,0.0412,0.0359,0.0391,
江東 (Koto),2014-02-24,10:01～11:00,0.0419,0.0368,0.0394,
江東 (Koto),2014-02-24,09:01～10:00,0.0422,0.0361,0.0392,
江東 (Koto),2014-02-24,08:01～09:00,0.0420,0.0369,0.0395,
江東 (Koto),2014-02-24,07:01～08:00,0.0419,0.0357,0.0391,
江東 (Koto),2014-02-24,06:01～07:00,0.0421,0.0371,0.0395,
江東 (Koto),2014-02-24,05:01～06:00,0.0418,0.0368,0.0393,
江東 (Koto),2014-02-24,04:01～05:00,0.0421,0.0371,0.0393,
江東 (Koto),2014-02-24,03:01～04:00,0.0415,0.0366,0.0393,
江東 (Koto),2014-02-24,02:01～03:00,0.0413,0.0372,0.0394,
江東 (Koto),2014-02-24,01:01～02:00,0.0407,0.0372,0.0390,
江東 (Koto),2014-02-24,00:01～01:00,0.0410,0.0373,0.0393,
